Terminal Aerodrome Forecast
Issued by NWS Sterling, VA

Current Version | Previous Version | Text Only | Print | Product List | Glossary Off
Versions: 1 2 3 4 5 6 7 8 9 10 11 12 13 14 15 16 17 18 19 20 21 22 23 24 25 26

207
FTUS41 KLWX 231123
TAFIAD
TAF
KIAD 231123Z 2312/2418 VRB03KT P6SM BKN050
     FM231500 13010G17KT P6SM BKN150
     FM240300 13006KT P6SM BKN100
     FM240900 11007KT 6SM -RA OVC030=

USA.gov is the U.S. government's official web portal to all federal, state and local government web resources and services.